This is the latest recevied weather packets stored in our database for station/object DB0NLS-15. If no packets are shown the sender has not sent any weather packets the latest 10 day(s).
| Time | Temp. | Humidity | Pressure | Rain* | Wind** | Luminosity | Snow |
|---|---|---|---|---|---|---|---|
| 1788604268 | 18.89° C | 57% | 1006.1 hPa | 0 mm | - | - | - |
| 1788603665 | 18.89° C | 58% | 1006.1 hPa | 0 mm | - | - | - |
| 1788603062 | 18.89° C | 58% | 1006.2 hPa | 0 mm | - | - | - |
| 1788602459 | 18.33° C | 59% | 1006.2 hPa | 0 mm | - | - | - |
| 1788601857 | 18.89° C | 58% | 1006 hPa | 0 mm | - | - | - |
| 1788601254 | 18.89° C | 58% | 1006.1 hPa | 0 mm | - | - | - |
| 1788600651 | 18.33° C | 60% | 1006 hPa | 0 mm | - | - | - |
| 1788600048 | 18.89° C | 59% | 1005.9 hPa | 0 mm | - | - | - |
| 1788599445 | 17.78° C | 62% | 1006 hPa | 0 mm | - | - | - |
| 1788598842 | 17.78° C | 65% | 1005.9 hPa | 0 mm | - | - | - |
| 1788598239 | 17.78° C | 66% | 1005.9 hPa | 0 mm | - | - | - |
| 1788597636 | 17.22° C | 68% | 1005.7 hPa | 0 mm | - | - | - |
| 1788597034 | 17.22° C | 69% | 1005.8 hPa | 0 mm | - | - | - |
| 1788596431 | 17.78° C | 69% | 1005.6 hPa | 0 mm | - | - | - |
| 1788595827 | 17.78° C | 68% | 1005.5 hPa | 0 mm | - | - | - |
| 1788595224 | 17.78° C | 69% | 1005.4 hPa | 0 mm | - | - | - |
| 1788594622 | 17.22° C | 70% | 1005.5 hPa | 0 mm | - | - | - |
| 1788594019 | 16.67° C | 71% | 1005.4 hPa | 0 mm | - | - | - |
| 1788593416 | 17.22° C | 72% | 1005.4 hPa | 0 mm | - | - | - |
| 1788592873 | 16.67° C | 72% | 1005.4 hPa | 0 mm | - | - | - |
| 1788592270 | 16.67° C | 73% | 1005.2 hPa | 0 mm | - | - | - |
| 1788591667 | 16.67° C | 75% | 1005.2 hPa | 0 mm | - | - | - |
| 1788591064 | 16.11° C | 76% | 1005.1 hPa | 0 mm | - | - | - |
| 1788590461 | 16.11° C | 78% | 1005.1 hPa | 0 mm | - | - | - |
| 1788589859 | 15.56° C | 79% | 1005 hPa | 0 mm | - | - | - |
* Rain latest hour (hover to see other rain measurements)
** Current wind speed in m/s (hover to see current wind gust speed)